Have a Safe July 4th! 

Flight Track Log - Related Links

Times and Time Zones

All times are in EDT time to prevent confusion due to time zone crossing. See the N983CA flight status page for this flight to view local times or setup timezone preferences in your user account.

Time Position Orientation Groundspeed Altitude Reporting Facility
EDT Latitude Longitude Course Direction KTS MPH feet Rate Location/Type
Tue 08:09:37 PM 37.6333 -122.3667 North 169 194 900  Level Northern Cal TRACON
Tue 08:10:17 PM 37.6486 -122.3381 56° Northeast 177 204 2,200 2,020 Climbing Oakland Center
Tue 08:11:18 PM 37.6953 -122.2869 41° Northeast 217 250 4,300 2,459 Climbing Oakland Center
Tue 08:12:00 PM 37.6177 -122.3665 North  Level FlightAware Approximate
Tue 08:12:19 PM 37.7822 -122.2767 North 265 305 7,200  Level Oakland Center
Tue 08:13:00 PM 37.7636 -122.3503 North  Level FlightAware Approximate
Tue 08:13:20 PM 37.8592 -122.2714 North 275 316 9,300  Level Oakland Center
Tue 08:14:00 PM 37.9099 -122.3500 North  Level FlightAware Approximate
Tue 08:14:21 PM 37.9414 -122.2686 North 291 335 11,400  Level Oakland Center
Tue 08:15:00 PM 38.0065 -122.3500 North  Level FlightAware Approximate
Tue 08:15:23 PM 38.0294 -122.2686 360° North 316 364 13,000  Level Oakland Center
Tue 08:16:24 PM 38.1219 -122.2692 360° North 332 382 15,000 1,869 Climbing Oakland Center
Tue 08:17:25 PM 38.2150 -122.2675 North 335 386 16,800 1,918 Climbing Oakland Center
Tue 08:18:26 PM 38.3089 -122.2683 360° North 337 388 18,900 1,854 Climbing Oakland Center
Tue 08:19:28 PM 38.4211 -122.2853 353° North 337 388 20,600 1,512 Climbing Oakland Center
Tue 08:20:29 PM 38.5158 -122.2994 353° North 342 394 22,000 1,279 Climbing Oakland Center
Tue 08:21:30 PM 38.6125 -122.3131 354° North 347 399 23,200 1,082 Climbing Oakland Center
Tue 08:22:31 PM 38.7081 -122.3272 353° North 351 404 24,200 1,024 Climbing Oakland Center
Tue 08:23:33 PM 38.8083 -122.3422 353° North 357 411 25,300 1,073 Climbing Oakland Center
Tue 08:24:34 PM 38.9086 -122.3589 353° North 359 413 26,400 885 Climbing Oakland Center
Tue 08:25:35 PM 39.0094 -122.3747 353° North 361 415 27,100 639 Climbing Oakland Center
Tue 08:26:36 PM 39.1125 -122.3911 353° North 365 420 27,700 537 Climbing Oakland Center
Tue 08:27:38 PM 39.2253 -122.4044 355° North 390 449 28,200 537 Climbing Oakland Center
Tue 08:28:39 PM 39.3333 -122.4208 353° North 391 450 28,800 590 Climbing Oakland Center
Tue 08:29:40 PM 39.4658 -122.4419 353° North 397 457 29,400 541 Climbing Oakland Center
Tue 08:30:41 PM 39.5769 -122.4597 353° North 401 461 29,900 488 Climbing Oakland Center
Tue 08:31:43 PM 39.6881 -122.4761 354° North 401 461 30,400 488 Climbing Oakland Center
Tue 08:32:44 PM 39.7969 -122.4956 352° North 397 457 30,900 492 Climbing Oakland Center
Tue 08:33:45 PM 39.9058 -122.5147 352° North 396 456 31,400 492 Climbing Oakland Center
Tue 08:34:46 PM 40.0167 -122.5308 354° North 397 457 31,900 293 Climbing Oakland Center
Tue 08:35:48 PM 40.1267 -122.5483 353° North 397 457 32,000 49 Climbing Oakland Center
Tue 08:36:49 PM 40.2344 -122.5628 354° North 407 468 32,000  Level Oakland Center
Tue 08:37:50 PM 40.3661 -122.5853 353° North 400 460 32,000  Level Oakland Center
Tue 08:38:51 PM 40.4753 -122.6019 353° North 397 457 32,000  Level Oakland Center
Tue 08:39:52 PM 40.5822 -122.6192 353° North 391 450 32,000  Level Oakland Center
Tue 08:40:53 PM 40.6889 -122.6367 353° North 389 448 32,000  Level Oakland Center
Tue 08:41:55 PM 40.7947 -122.6536 353° North 387 445 32,000  Level Oakland Center
Tue 08:42:56 PM 40.9064 -122.6717 353° North 392 451 32,000  Level Oakland Center
Tue 08:43:57 PM 41.0136 -122.6878 354° North 390 449 32,000  Level Oakland Center
Tue 08:44:58 PM 41.1214 -122.7067 352° North 391 450 32,000  Level Oakland Center
Tue 08:45:26 PM 41.1650 -122.7142 353° North 390 449 32,000  Level Seattle Center
Tue 08:46:27 PM 41.2725 -122.7314 353° North 388 447 32,000  Level Seattle Center
Tue 08:47:28 PM 41.3797 -122.7489 353° North 388 447 32,000  Level Seattle Center
Tue 08:48:29 PM 41.5089 -122.7700 353° North 388 447 32,000  Level Seattle Center
Tue 08:49:30 PM 41.6164 -122.7883 353° North 387 445 32,000  Level Seattle Center
Tue 08:50:31 PM 41.7233 -122.8053 353° North 386 444 32,000  Level Seattle Center
Tue 08:51:32 PM 41.8300 -122.8231 353° North 383 441 32,000  Level Seattle Center
Tue 08:52:33 PM 41.9372 -122.8406 353° North 384 442 32,000  Level Seattle Center
Tue 08:53:34 PM 42.0447 -122.8586 353° North 388 447 32,000  Level Seattle Center
Tue 08:54:35 PM 42.1533 -122.8778 353° North 392 451 32,000  Level Seattle Center
Tue 08:55:36 PM 42.2581 -122.8953 353° North 382 440 32,000  Level Seattle Center
Tue 08:56:36 PM 42.3639 -122.9128 353° North 381 438 32,000  Level Seattle Center
Tue 08:57:37 PM 42.4708 -122.9333 352° North 384 442 32,000  Level Seattle Center
Tue 08:58:38 PM 42.5775 -122.9497 354° North 384 442 32,000  Level Seattle Center
Tue 08:59:39 PM 42.6831 -122.9686 353° North 383 441 32,000 -492 Level Seattle Center
Tue 09:00:40 PM 42.7844 -122.9856 353° North 382 440 31,000 -1,820 Descending Seattle Center
Tue 09:01:41 PM 42.8986 -123.0056 353° North 402 463 28,300 -2,951 Descending Seattle Center
Tue 09:02:42 PM 43.0358 -122.9564 15° North 424 488 25,000 -2,975 Descending Seattle Center
Tue 09:03:42 PM 43.1417 -122.9231 13° North 403 464 22,300 -2,678 Descending Seattle Center
Tue 09:04:43 PM 43.2422 -122.9472 350° North 375 432 19,600 -2,557 Descending Seattle Center
Tue 09:05:44 PM 43.3436 -122.9758 348° North 372 428 17,100 -2,508 Descending Seattle Center
Tue 09:06:45 PM 43.4378 -123.0069 347° North 355 409 14,500 -2,311 Descending Seattle Center
Tue 09:07:46 PM 43.5294 -123.0381 346° North 341 392 12,400 -1,672 Descending Seattle Center
Tue 09:08:47 PM 43.6119 -123.0617 348° North 319 367 11,100 -1,230 Descending Seattle Center
Tue 09:09:48 PM 43.6781 -123.0864 345° North 273 314 9,900 -1,190 Descending Seattle Center
Tue 09:10:48 PM 43.7247 -123.1442 318° Northwest 243 280 8,700 -1,289 Descending Seattle Center
Tue 09:11:49 PM 43.7719 -123.1964 321° Northwest 227 261 7,300 -1,426 Descending Seattle Center
Tue 09:12:50 PM 43.8200 -123.2489 322° Northwest 221 254 5,800 -1,426 Descending Seattle Center
Tue 09:13:51 PM 43.8733 -123.2617 350° North 227 261 4,400 -885 Descending Seattle Center
Tue 09:14:52 PM 43.9211 -123.2267 28° Northeast 202 232 4,000 -590 Descending Seattle Center
Tue 09:15:53 PM 43.9647 -123.2175 North 177 204 3,200 -787 Descending Seattle Center

Login

Don't have an account? Register now (free) for customized features, flight alerts, and more!